Location: ??????
(41.3164°N, 22.6615°E)
Time: 11:56:03
(UTC+00:00)

PicSat - Visible Passes

Search period start: 28 June 2022 00:00
Search period end: 08 July 2022 00:00
Orbit: 453 x 459 km, 97.4° (Epoch: 28 June)

Date Brightness Start Highest point End Pass type
(mag) Time Alt. Az. Time Alt. Az. Time Alt. Az.
28 Jun ? 19:43:56 11° E 19:44:50 12° ENE 19:46:12 10° NE visible
28 Jun ? 21:17:42 37° W 21:17:42 37° W 21:20:34 10° NNW visible
29 Jun ? 20:44:10 68° ENE 20:44:10 68° ENE 20:47:32 10° N visible
30 Jun ? 20:10:38 23° E 20:11:02 24° ENE 20:13:51 10° NNE visible
30 Jun ? 21:44:24 17° W 21:44:24 17° W 21:46:17 10° NW visible
01 Jul ? 21:10:50 46° WNW 21:10:50 46° WNW 21:13:50 10° NNW visible
02 Jul ? 20:37:14 53° ENE 20:37:14 53° ENE 20:40:35 10° N visible
03 Jul ? 20:03:38 19° E 20:04:06 20° ENE 20:06:40 10° NNE visible
03 Jul ? 21:37:23 21° W 21:37:23 21° W 21:39:35 10° NW visible
04 Jul ? 21:03:45 58° WNW 21:03:45 58° WNW 21:06:50 10° NNW visible
05 Jul ? 20:30:05 42° ENE 20:30:07 42° ENE 20:33:24 10° N visible
06 Jul ? 19:56:25 16° E 19:56:58 16° ENE 19:59:11 10° NNE visible
06 Jul ? 21:30:11 25° WNW 21:30:11 25° WNW 21:32:35 10° NW visible
07 Jul ? 20:56:29 69° NW 20:56:29 69° NW 20:59:36 10° NNW visible
